Location: Casteau
(50.5142°N, 4.0161°E)
Time: 05:19:52
(UTC+00:00)

GP-B - Pass Details

Date: 18 September 2020
Orbit: 631 x 635 km, 89.8° (Epoch: 27 October)

Event Time Altitude Azimuth Distance (km) Brightness Sun altitude
Rises 18:17:05 0° 360° (N) 2,947 6.7 -5.1°
Reaches altitude 10° 18:19:19 10° 359° (N) 2,033 5.9 -5.4°
Maximum altitude 18:23:47 78° 274° (W) 656 3.4 -6.1°
Drops below altitude 10° 18:28:12 10° 188° (S) 2,013 5.7 -6.8°
Sets 18:30:24 0° 187° (S) 2,916 6.5 -7.2°
